N80EM KVNY-KAPA

Flight info

Callsign N80EM
Flight time N/A
Altitude 45000
Route HARYS5 LAS J146 DICEE STIFS ZOMBZ6
Aircraft C750/M-SBDE3FGHRWXY/S

Departure

Time 2026-04-30 00:44
Airport Van Nuys Airport (KVNY)

Arrival

Time N/A
Airport Centennial Airport (KAPA)
Time Latitude Longitude Altitude Speed Heading
2026-04-30 00:09 34.21120 -118.48790 787 ft 0 kts 307°
2026-04-30 00:37 34.21121 -118.48791 787 ft 1 kts 307°
2026-04-30 00:37 34.21137 -118.48809 788 ft 6 kts 322°
2026-04-30 00:37 34.21193 -118.48853 788 ft 11 kts 343°
2026-04-30 00:38 34.21262 -118.48861 789 ft 9 kts 356°
2026-04-30 00:38 34.21319 -118.48866 790 ft 7 kts 354°
2026-04-30 00:38 34.21357 -118.48871 791 ft 4 kts 357°
2026-04-30 00:38 34.21377 -118.48872 791 ft 4 kts 356°
2026-04-30 00:39 34.21411 -118.48876 792 ft 7 kts 355°
2026-04-30 00:39 34.21503 -118.48885 794 ft 20 kts 354°
2026-04-30 00:39 34.21616 -118.48909 795 ft 15 kts 346°
2026-04-30 00:39 34.21712 -118.48931 797 ft 12 kts 353°
2026-04-30 00:40 34.21782 -118.48941 801 ft 9 kts 355°
2026-04-30 00:40 34.21843 -118.48946 805 ft 8 kts 356°
2026-04-30 00:40 34.21882 -118.48960 807 ft 5 kts 317°
2026-04-30 00:40 34.21891 -118.49013 807 ft 9 kts 270°
2026-04-30 00:41 34.21891 -118.49028 807 ft 0 kts 266°
2026-04-30 00:41 34.21890 -118.49038 807 ft 4 kts 265°
2026-04-30 00:42 34.21889 -118.49047 807 ft 0 kts 265°
2026-04-30 00:42 34.21887 -118.49074 807 ft 4 kts 265°
2026-04-30 00:42 34.21863 -118.49116 805 ft 8 kts 198°
2026-04-30 00:43 34.21668 -118.49103 799 ft 65 kts 179°
2026-04-30 00:43 34.20929 -118.49037 791 ft 137 kts 175°
2026-04-30 00:43 34.19969 -118.48976 1135 ft 139 kts 174°
2026-04-30 00:43 34.18944 -118.48867 1136 ft 156 kts 167°
2026-04-30 00:44 34.18008 -118.48401 1637 ft 138 kts 144°
2026-04-30 00:44 34.17458 -118.47353 1776 ft 163 kts 114°
2026-04-30 00:44 34.16953 -118.46106 2159 ft 167 kts 124°
2026-04-30 00:44 34.16208 -118.44942 2253 ft 192 kts 130°
2026-04-30 00:45 34.15359 -118.43537 2112 ft 218 kts 124°
2026-04-30 00:45 34.14601 -118.41925 1917 ft 222 kts 111°
2026-04-30 00:45 34.14641 -118.40078 1695 ft 222 kts 67°
2026-04-30 00:45 34.15639 -118.38864 2011 ft 193 kts 24°
2026-04-30 00:46 34.16811 -118.38638 2857 ft 159 kts 349°
2026-04-30 00:46 34.17837 -118.39132 3227 ft 171 kts 331°
2026-04-30 00:46 34.19073 -118.39708 3210 ft 204 kts 339°
2026-04-30 00:46 34.20493 -118.40204 3134 ft 226 kts 343°
2026-04-30 00:47 34.22063 -118.40686 3093 ft 237 kts 345°